Date String (YYYY-MM-DD hh:mm:ss) UTC,Instrument flags,Ambient pressure (hPa),Sample flow (lpm),Bypass flow (lpm),Sample temperature (°C),Ambient temperature (°C),ASC tube jacket temperature (°C),LED temperature (°C),Box temperature (°C),Sample RH (%),Span deviation,Mass concentration (μg/m³),Mass concentration (μg/m³),Mass concentration (μg/m³)
DateTimeUTC,F1_M11,P_M11,Q1_M11,Q2_M11,T1_M11,T2_M11,T3_M11,T4_M11,T5_M11,U1_M11,ZSPAN_M11,X2_M11,X0_M11,X1_M11
2022-07-13 10:00:00,,0829.5,5.00,0.00,30.0,28.9,00.0,38.8,31.9,21.4,0000.0,0006.52,0014.33,0005.63
2022-07-13 10:01:00,,0829.5,5.01,0.00,30.0,28.9,00.0,38.8,31.9,21.4,0000.0,0006.55,0014.33,0005.65
2022-07-13 10:02:00,,0829.5,5.00,0.00,30.0,28.9,00.0,38.8,31.9,21.6,0000.0,0006.58,0014.29,0005.64
2022-07-13 10:03:00,,0829.5,5.00,0.00,30.0,28.9,00.0,38.8,31.9,21.5,0000.0,0006.59,0014.38,0005.62
2022-07-13 10:04:00,,0829.5,5.01,0.00,30.0,28.9,00.0,38.8,31.9,21.5,0000.0,0006.54,0014.25,0005.60
2022-07-13 10:05:00,,0829.5,5.00,0.00,30.0,28.9,00.0,38.8,31.9,21.6,0000.0,0006.51,0013.56,0005.60
2022-07-13 10:06:00,,0829.5,5.01,0.00,30.0,28.9,00.0,38.8,31.9,21.6,0000.0,0006.47,0013.03,0005.59
2022-07-13 10:07:00,,0829.5,5.00,0.00,30.0,29.0,00.0,38.9,31.9,21.5,0000.0,0006.42,0011.98,0005.59
2022-07-13 10:08:00,,0829.5,5.01,0.00,30.0,29.0,00.0,38.9,31.9,21.6,0000.0,0006.39,0011.36,0005.59
2022-07-13 10:09:00,,0829.5,5.00,0.00,30.0,29.0,00.0,38.9,31.9,21.7,0000.0,0006.42,0011.39,0005.59
2022-07-13 10:10:00,,0829.5,5.00,0.00,30.0,29.0,00.0,38.9,31.9,21.7,0000.0,0006.47,0011.46,0005.60
2022-07-13 10:11:00,,0829.5,5.01,0.00,30.0,29.0,00.0,38.9,31.9,21.5,0000.0,0006.49,0012.09,0005.60
2022-07-13 10:12:00,,0829.4,4.99,0.00,30.0,29.0,00.0,38.9,31.9,21.6,0000.0,0006.48,0012.04,0005.60
2022-07-13 10:13:00,,0829.4,5.01,0.00,30.0,29.0,00.0,38.9,31.9,21.7,0000.0,0006.46,0011.86,0005.61
2022-07-13 10:14:00,,0829.5,4.98,0.00,30.0,29.0,00.0,38.9,31.9,21.9,0000.0,0006.42,0012.13,0005.61
2022-07-13 10:15:00,,0829.5,5.01,0.00,30.0,29.0,00.0,38.9,31.9,22.0,0000.0,0006.42,0012.75,0005.61
2022-07-13 10:16:00,,0829.4,4.99,0.00,30.0,29.0,00.0,38.9,31.9,22.1,0000.0,0006.47,0014.33,0005.61
2022-07-13 10:17:00,,0829.4,5.01,0.00,30.0,29.0,00.0,38.9,31.9,22.2,0000.0,0006.52,0014.82,0005.61
2022-07-13 10:18:00,,0829.3,5.01,0.00,30.0,28.9,00.0,38.9,31.9,22.4,0000.0,0006.54,0015.27,0005.59
2022-07-13 10:19:00,,0829.3,5.00,0.00,30.0,28.2,00.0,38.8,31.8,22.4,0000.0,0006.54,0015.45,0005.58
2022-07-13 10:20:00,,0829.3,4.99,0.00,30.0,27.5,00.0,38.7,31.7,22.6,0000.0,0006.51,0015.60,0005.57
2022-07-13 10:21:00,,0829.2,5.01,0.00,29.9,27.3,00.0,38.7,31.5,22.8,0000.0,0006.51,0015.68,0005.55
2022-07-13 10:22:00,,0829.3,5.00,0.00,29.8,27.3,00.0,38.7,31.4,23.0,0000.0,0006.53,0015.14,0005.55
2022-07-13 10:23:00,,0829.3,5.00,0.00,29.7,27.4,00.0,38.7,31.4,22.9,0000.0,0006.54,0015.30,0005.55
2022-07-13 10:24:00,,0829.2,5.00,0.00,29.7,27.5,00.0,38.6,31.4,22.8,0000.0,0006.53,0015.29,0005.55
2022-07-13 10:25:00,,0829.3,5.00,0.00,29.7,27.7,00.0,38.6,31.4,22.7,0000.0,0006.57,0015.37,0005.54
2022-07-13 10:26:00,,0829.4,5.00,0.00,29.6,27.8,00.0,38.6,31.4,22.6,0000.0,0006.61,0014.96,0005.54
2022-07-13 10:27:00,,0829.2,4.99,0.00,29.6,27.9,00.0,38.6,31.4,22.7,0000.0,0006.57,0013.59,0005.54
2022-07-13 10:28:00,,0829.3,5.01,0.00,29.6,28.0,00.0,38.5,31.4,22.9,0000.0,0006.58,0013.36,0005.54
2022-07-13 10:29:00,,0829.2,4.99,0.00,29.6,28.1,00.0,38.5,31.3,22.8,0000.0,0006.59,0012.96,0005.56
2022-07-13 10:30:00,,0829.3,5.01,0.00,29.6,28.1,00.0,38.5,31.4,22.8,0000.0,0006.66,0013.22,0005.59
2022-07-13 10:31:00,,0829.2,4.99,0.00,29.5,28.2,00.0,38.5,31.3,22.9,0000.0,0006.70,0014.04,0005.61
2022-07-13 10:32:00,,0829.2,5.00,0.00,29.5,28.2,00.0,38.5,31.4,23.0,0000.0,0006.70,0014.43,0005.65
2022-07-13 10:33:00,,0829.3,5.00,0.00,29.6,28.3,00.0,38.5,31.4,23.3,0000.0,0006.65,0014.28,0005.66
2022-07-13 10:34:00,,0829.3,5.01,0.00,29.6,28.3,00.0,38.5,31.4,23.8,0000.0,0006.71,0014.59,0005.67
2022-07-13 10:35:00,,0829.3,4.99,0.00,29.5,28.4,00.0,38.5,31.4,24.3,0000.0,0006.77,0015.06,0005.67
2022-07-13 10:36:00,,0829.3,4.99,0.00,29.6,28.4,00.0,38.4,31.4,24.6,0000.0,0006.79,0015.76,0005.66
2022-07-13 10:37:00,,0829.2,5.01,0.00,29.5,28.4,00.0,38.4,31.4,24.7,0000.0,0006.76,0015.76,0005.67
2022-07-13 10:38:00,,0829.3,5.00,0.00,29.5,28.4,00.0,38.4,31.4,24.7,0000.0,0006.79,0015.89,0005.67
2022-07-13 10:39:00,,0829.2,5.01,0.00,29.6,28.5,00.0,38.4,31.4,24.9,0000.0,0006.82,0016.16,0005.66
2022-07-13 10:40:00,,0829.3,5.00,0.00,29.6,28.5,00.0,38.4,31.4,25.3,0000.0,0006.83,0016.93,0005.63
2022-07-13 10:41:00,,0829.2,4.99,0.00,29.6,28.5,00.0,38.4,31.4,25.5,0000.0,0006.88,0016.95,0005.60
2022-07-13 10:42:00,,0829.2,4.99,0.00,29.6,28.5,00.0,38.4,31.5,25.5,0000.0,0006.92,0016.61,0005.56
2022-07-13 10:43:00,,0829.2,5.01,0.00,29.6,28.5,00.0,38.4,31.5,25.5,0000.0,0006.95,0016.99,0005.51
2022-07-13 10:44:00,,0829.2,4.99,0.00,29.6,28.6,00.0,38.5,31.5,25.4,0000.0,0007.03,0017.32,0005.48
2022-07-13 10:45:00,,0829.2,5.00,0.00,29.6,28.6,00.0,38.5,31.4,25.8,0000.0,0007.02,0018.30,0005.45
2022-07-13 10:46:00,,0829.1,5.00,0.00,29.6,28.6,00.0,38.5,31.5,25.9,0000.0,0007.00,0018.11,0005.42
2022-07-13 10:47:00,,0829.2,5.00,0.00,29.6,28.6,00.0,38.5,31.4,26.0,0000.0,0007.05,0017.75,0005.40
2022-07-13 10:48:00,,0829.1,5.00,0.00,29.6,28.6,00.0,38.5,31.4,25.8,0000.0,0007.11,0019.03,0005.37
2022-07-13 10:49:00,,0829.2,5.00,0.00,29.6,28.6,00.0,38.5,31.4,26.0,0000.0,0007.13,0019.56,0005.34
2022-07-13 10:50:00,,0829.2,5.00,0.00,29.6,28.6,00.0,38.5,31.5,26.0,0000.0,0007.18,0019.33,0005.33
2022-07-13 10:51:00,,0829.2,5.01,0.00,29.6,28.6,00.0,38.5,31.5,25.9,0000.0,0007.18,0018.86,0005.33
2022-07-13 10:52:00,,0829.2,5.00,0.00,29.6,28.6,00.0,38.5,31.5,25.8,0000.0,0007.13,0018.90,0005.32
2022-07-13 10:53:00,,0829.2,5.01,0.00,29.6,28.6,00.0,38.5,31.5,25.9,0000.0,0007.05,0020.26,0005.30
2022-07-13 10:54:00,,0829.2,5.01,0.00,29.6,28.6,00.0,38.5,31.5,26.0,0000.0,0007.03,0020.36,0005.30
2022-07-13 10:55:00,,0829.2,5.01,0.00,29.6,28.6,00.0,38.5,31.5,26.0,0000.0,0007.00,0020.33,0005.29
2022-07-13 10:56:00,,0829.2,4.99,0.00,29.6,28.7,00.0,38.5,31.5,25.9,0000.0,0006.98,0019.27,0005.28
2022-07-13 10:57:00,,0829.2,5.00,0.00,29.6,28.7,00.0,38.5,31.5,25.9,0000.0,0007.02,0019.45,0005.28
2022-07-13 10:58:00,,0829.3,5.00,0.00,29.6,28.7,00.0,38.5,31.5,25.8,0000.0,0006.97,0019.13,0005.29
2022-07-13 10:59:00,,0829.2,4.99,0.00,29.6,28.7,00.0,38.5,31.5,25.9,0000.0,0006.91,0018.36,0005.27
